SCP
0 0 1 1 1 1 1 1 1 0 0 0 0 0 0 0 0 0 0 1 2 2 3 3 2 2 1 1 0 0 0 0 0 0 0 0 0 0 0 0 0 0 0
0 1 1 1 2 2 1 1 1 1 0 0 0 0 0 0 0 0 0 1 1 2 3 3 3 2 1 0 0 0 0 0 0 0 0 0 0 0 0 0 0 0 0
2 2 3 2 2 3 1 1 1 1 1 0 0 0 0 0 0 0 0 0 2 2 3 3 3 3 2 0 0 0 0 0 0 0 0 0 0 0 0 0 0 0 0
2 4 4 3 2 2 2 1 1 1 1 0 0 0 0 0 0 0 0 0 1 2 3 3 4 3 2 1 0 0 0 0 0 0 0 0 0 0 0 0 0 0 0
2 4 3 3 2 2 2 2 1 1 1 1 1 0 0 0 0 -0 -0 -0 0 0 2 4 4 3 2 2 0 0 0 0 0 0 0 0 0 0 0 0 0 0 0
1 3 3 3 2 2 2 2 2 1 1 1 1 1 0 0 0 0 0 0 0 0 1 2 4 4 2 2 1 0 0 0 0 0 0 0 0 0 0 0 0 0 0
3 3 2 2 2 3 1 1 1 0 0 0 0 0 0 0 0 0 0 0 0 0 1 1 3 3 2 2 0 0 0 0 0 0 0 0 0 0 0 0 0 0 0
2 3 2 3 4 1 2 1 1 1 0 0 0 0 0 0 0 0 0 0 0 0 0 0 1 0 1 0 0 0 0 0 0 0 0 0 0 0 0 0 0 0 0
0 0 0 0 2 0 0 1 1 0 0 0 0 0 0 0 0 0 0 0 0 0 0 0 0 0 0 0 0 0 0 0 0 0 0 0 0 0 0 0 0 0 0
0 0 0 0 0 0 0 0 0 0 0 0 0 0 0 0 0 0 0 0 0 0 -0 0 0 0 0 0 0 0 0 0 0 0 0 0 0 0 0 0 0 0 0
0 0 0 0 0 0 0 0 0 0 0 0 0 0 0 0 0 0 0 0 0 0 -0 0 0 0 0 0 0 0 0 0 0 0 0 0 0 0 0 0 0 0 0
0 0 0 0 0 0 0 -0 0 0 0 0 0 0 0 0 0 0 0 0 0 0 0 0 0 0 0 0 0 0 0 0 0 0 0 0 0 0 0 0 0 0 0
0 0 0 0 0 0 0 -0 0 0 0 0 0 0 0 0 0 0 0 0 0 0 0 0 0 0 0 0 0 0 0 0 0 0 0 0 0 0 0 0 0 0 0
0 0 0 0 0 0 0 0 0 0 0 0 0 0 0 0 0 0 0 0 0 0 0 0 0 0 0 0 0 0 0 0 0 0 0 0 0 0 0 0 0 0 0
0 0 0 0 0 0 0 0 0 0 0 0 0 0 0 0 0 0 0 0 0 0 0 0 0 0 0 0 0 0 0 0 0 0 0 0 0 0 0 0 0 0 0
-0 0 0 0 0 0 0 0 0 0 0 0 0 0 0 0 0 0 0 0 0 0 0 0 0 0 0 0 0 0 0 0 0 0 0 0 0 0 0 0 0 0 0
-0 0 0 0 0 0 0 0 0 0 0 0 0 0 0 0 0 0 0 0 0 0 0 0 0 0 0 0 0 0 0 0 0 0 0 0 0 0 0 0 0 0 0
-0 -0 0 0 0 0 0 0 0 0 0 0 0 0 0 0 0 0 0 0 0 0 0 0 0 0 0 0 0 0 0 0 0 0 0 0 0 0 0 0 0 0 0
-0 0 0 0 0 0 0 0 0 0 0 0 0 0 0 0 0 0 0 0 0 0 0 0 0 0 0 0 0 0 0 0 0 0 0 0 0 0 0 0 0 0 0
0 0 0 0 0 0 0 0 0 0 0 0 0 0 0 0 0 0 0 0 0 0 0 0 0 0 0 0 0 0 0 0 0 0 0 0 0 0 0 0 0 0 -0
0 0 0 0 0 0 0 0 0 0 0 0 0 0 0 0 0 0 0 0 0 0 0 0 0 0 0 0 0 0 0 0 0 0 0 0 0 0 0 0 0 -0 -0
0 0 0 0 0 0 0 0 0 0 0 0 0 0 0 0 0 0 0 0 0 0 0 0 0 0 0 0 0 0 0 0 0 0 0 0 0 0 0 0 -0 -0 -0
0 0 0 0 0 0 0 0 0 0 0 0 0 0 0 0 0 0 0 0 0 0 0 0 0 0 0 0 0 0 0 0 0 0 0 0 0 0 0 0 -0 -0 -0
0 0 0 -0 0 0 0 0 0 0 0 0 0 0 0 0 0 0 0 0 0 0 0 0 0 0 0 0 0 0 0 0 0 0 0 0 -0 0 0 0 -0 -0 -0
-0 -0 -0 -0 -0 -0 0 0 -0 -0 -0 -0 -0 -0 -0 0 -0 0 0 0 0 -0 -0 -0 0 -0 -0 -0 0 0 0 0 0 0 0 0 -0 0 -0 -0 -0 -0 -0
-0 -0 0 -0 -0 -0 -0 -0 -0 -0 -0 -0 -0 -0 0 -0 -0 -0 0 0 -0 0 0 0 0 0 -0 -0 -0 0 0 0 0 -0 0 -0 -0 0 -0 0 0 0 0
Wind_Speed_500mb
29 36 32 32 32 38 34 30 31 32 34 35 38 34 34 31 36 43 48 52 43 47 56 59 57 53 49 52 53 46 41 39 37 34 34 32 31 33 34 37 41 46 48
35 46 31 40 41 48 45 41 43 38 42 47 33 28 43 52 48 48 52 55 56 56 57 60 61 58 53 56 57 51 46 44 41 39 37 34 36 35 38 39 44 49 47
50 45 52 44 39 52 53 49 45 48 48 56 56 50 50 47 46 44 53 56 61 65 59 65 68 66 61 59 64 58 51 48 45 43 40 37 38 37 39 42 47 50 44
51 58 46 42 43 47 49 48 46 47 44 45 47 56 61 63 67 59 57 52 71 64 76 73 73 74 69 65 69 62 56 51 49 45 42 41 39 39 41 45 50 51 35
47 57 54 45 37 44 38 41 43 42 47 45 44 47 50 54 57 67 72 65 59 66 79 86 88 81 81 75 75 66 60 54 50 44 45 42 40 39 42 47 51 46 35
52 59 62 57 46 41 43 37 39 41 40 40 45 46 53 57 60 65 65 70 84 81 71 81 93 98 95 88 78 65 57 53 50 47 56 42 38 39 43 49 49 39 36
62 65 61 55 54 49 45 33 31 32 41 39 41 52 55 63 72 71 70 71 71 77 95 82 95 114 100 81 64 50 56 56 50 57 48 45 36 36 45 48 42 34 34
62 71 61 54 51 57 20 29 34 20 24 28 39 46 52 61 68 57 50 58 58 55 69 80 91 52 73 63 50 56 66 54 63 62 56 40 32 38 43 43 41 43 36
47 73 64 62 35 21 20 14 17 22 28 29 34 44 45 43 64 69 69 69 63 61 64 65 85 75 82 60 57 62 61 69 76 74 41 28 32 37 40 39 37 32 37
40 45 48 53 48 35 13 36 41 42 44 40 45 45 51 56 54 62 68 73 67 58 55 63 73 74 82 62 62 61 60 77 62 37 20 24 32 34 36 36 30 35 33
29 28 32 36 38 60 34 42 52 45 48 45 47 52 58 63 60 57 63 66 59 62 56 55 51 77 83 90 54 56 83 63 39 20 18 23 30 33 34 34 31 31 29
30 12 23 15 5 9 27 42 46 50 41 47 54 56 59 55 60 59 57 60 56 51 41 35 35 27 68 54 46 69 56 33 18 20 15 24 30 28 28 26 27 29 36
36 34 28 38 39 20 23 40 39 40 44 47 53 63 59 58 56 53 44 42 43 37 31 31 46 38 25 54 48 53 38 29 18 13 19 24 24 19 16 21 27 34 34
32 34 32 23 7 35 36 37 37 44 45 48 54 55 56 56 48 50 54 49 43 36 31 25 20 25 23 14 26 27 25 20 6 12 20 18 13 15 17 24 32 34 32
38 31 24 12 21 23 31 31 36 40 45 45 44 46 48 49 46 49 49 35 42 42 43 39 38 46 43 52 46 34 18 6 3 6 8 8 15 20 23 27 28 27 28
39 40 31 26 24 22 22 22 27 32 35 38 37 38 38 39 36 41 40 38 36 47 44 47 53 51 49 45 46 39 24 12 4 9 8 12 16 20 23 21 26 22 24
42 43 37 31 29 27 28 26 26 26 27 28 28 27 28 29 29 29 30 33 32 31 55 39 44 39 40 41 39 29 24 21 16 7 5 10 16 23 26 26 24 19 23
46 39 37 26 23 25 27 20 19 23 19 22 22 24 23 18 15 18 20 24 30 33 38 45 39 43 43 36 28 29 29 26 15 12 3 6 17 25 29 26 21 18 23
44 43 33 28 24 24 23 23 24 23 24 22 19 20 19 15 12 6 7 14 18 29 31 41 48 44 41 40 36 34 29 27 22 19 6 8 17 27 32 28 21 17 19
38 35 27 22 23 24 26 26 22 24 24 21 17 14 10 7 11 8 4 5 8 18 32 45 49 45 40 42 37 38 33 28 32 20 11 10 20 27 30 20 18 17 20
30 17 15 15 18 21 23 20 21 23 19 15 14 11 12 12 15 18 23 27 27 27 38 46 47 42 39 37 30 31 36 34 32 19 12 2 15 25 15 8 9 20 18
11 13 17 21 23 25 19 18 19 17 16 15 17 18 20 19 18 21 25 24 27 29 29 31 29 37 35 31 21 27 47 50 38 22 7 5 11 12 8 13 23 24 21
15 17 21 24 34 37 33 29 32 38 41 36 20 16 19 25 34 39 37 20 23 9 10 30 30 28 26 31 33 41 45 30 24 23 8 6 10 10 19 22 26 28 24
20 21 25 26 28 35 35 37 29 29 29 26 25 27 26 29 33 32 35 36 37 36 28 22 20 16 10 11 22 29 23 25 23 16 9 13 11 19 26 25 28 26 24
39 37 31 33 37 32 24 28 27 30 29 36 32 27 19 17 25 31 33 37 39 37 28 25 24 17 4 14 13 17 26 24 26 21 17 14 19 30 30 26 28 27 23
37 34 32 31 31 35 28 24 32 34 33 39 37 41 46 25 29 31 28 27 23 24 16 18 20 24 15 11 21 18 28 22 16 17 21 21 30 27 23 26 27 28 23
Wind_Direction_500mb
259 252 246 230 242 256 259 271 277 280 278 288 277 280 278 281 277 282 280 279 290 263 259 254 254 258 256 244 238 242 247 246 246 250 259 267 276 284 294 302 310 314 314
253 234 262 245 244 247 251 261 262 260 270 270 282 281 276 278 275 273 271 267 273 276 268 258 253 254 253 241 238 240 244 244 244 249 257 266 273 283 293 302 308 312 311
257 244 264 247 261 251 248 252 265 263 275 268 264 263 259 264 270 275 274 268 266 266 267 256 254 253 252 244 239 239 240 241 243 247 256 265 272 282 291 300 306 308 305
253 240 238 259 267 250 252 252 256 265 276 285 279 268 263 265 273 269 271 269 264 265 264 262 255 250 250 245 239 236 236 238 242 245 256 265 270 279 291 300 307 308 304
249 245 252 255 247 257 254 248 252 262 278 288 293 294 292 287 283 275 274 273 270 267 261 265 258 249 245 239 235 234 235 237 241 246 255 262 270 281 292 299 307 306 297
260 255 253 261 254 254 259 263 267 274 273 282 289 295 295 291 291 289 283 278 269 266 271 263 261 248 240 231 231 232 237 240 241 241 250 257 273 283 294 301 302 300 292
263 265 262 257 252 246 255 264 280 274 276 292 298 294 295 295 296 293 292 294 284 276 271 268 269 244 230 229 221 236 246 242 244 249 251 256 272 285 291 297 303 300 295
264 258 258 245 240 248 268 273 278 283 287 295 298 304 308 307 304 309 298 296 303 299 281 269 269 222 224 225 236 226 236 229 228 239 240 248 273 283 292 298 303 300 294
283 256 242 236 248 222 260 265 261 260 265 276 291 302 303 295 305 304 302 300 293 299 301 302 264 261 246 228 224 221 229 215 222 233 226 252 269 281 294 303 303 301 293
278 247 229 239 250 251 254 285 276 273 281 295 296 293 292 291 293 301 305 303 298 300 303 293 285 276 223 220 216 220 223 205 204 212 231 259 274 291 300 298 297 293 306
318 287 267 273 281 278 271 264 269 283 281 291 291 294 293 295 294 290 297 304 301 300 310 299 283 238 221 205 209 228 213 204 210 203 237 271 287 299 302 299 301 306 302
12 327 321 274 302 259 242 255 260 285 278 284 290 287 287 291 294 296 293 296 297 299 311 275 255 225 185 187 211 203 206 202 201 217 266 285 295 297 293 295 306 303 304
20 18 346 285 229 270 289 281 276 278 281 292 294 286 286 284 282 284 293 298 294 285 278 249 256 252 191 180 182 201 203 212 237 314 311 299 290 290 287 297 307 306 307
356 8 32 32 181 213 226 257 269 276 284 282 279 282 284 284 286 284 282 281 280 276 261 243 211 176 180 234 252 211 193 232 268 324 306 312 301 290 298 305 307 310 308
348 346 345 301 281 257 245 258 270 280 284 285 287 290 288 283 287 297 293 273 274 255 250 229 216 227 258 257 228 213 211 236 121 317 305 327 321 316 313 305 306 313 318
332 331 341 336 314 307 299 296 290 292 293 296 300 300 301 297 303 296 293 291 275 256 245 239 226 224 216 209 220 223 223 147 175 126 53 13 355 337 332 329 326 328 329
304 325 329 333 330 330 329 327 321 321 313 315 318 316 307 304 301 305 299 290 274 259 242 227 230 213 206 204 199 193 157 139 139 117 44 19 348 346 340 337 337 341 343
331 326 329 338 346 351 342 343 346 332 355 2 356 351 346 326 321 318 289 268 259 255 242 226 204 194 193 186 176 151 142 140 144 184 21 313 333 341 343 343 350 353 350
329 330 332 342 360 8 5 20 19 25 24 16 11 8 1 351 341 314 290 269 251 245 225 208 181 174 161 153 151 149 146 134 176 198 248 290 319 346 354 353 358 0 359
340 339 341 357 20 25 25 31 24 25 25 18 23 26 28 43 57 49 102 139 174 188 177 165 150 149 150 152 156 159 161 164 184 183 187 279 346 351 345 2 6 19 13
338 357 26 44 52 49 40 32 30 31 33 43 49 58 70 95 95 108 105 113 118 131 141 141 145 152 165 163 172 171 166 167 170 163 192 121 334 328 351 19 38 28 58
38 68 73 66 57 53 42 36 39 54 66 67 75 81 91 104 102 104 110 127 131 136 141 141 146 138 126 117 144 172 165 153 128 166 141 352 342 334 51 53 47 60 62
70 66 62 65 78 71 64 76 82 78 71 64 76 101 108 84 74 69 72 124 131 142 147 128 118 113 125 121 122 155 158 163 160 165 236 125 37 55 75 66 68 68 58
67 68 80 92 73 69 71 65 59 55 54 58 58 69 105 89 72 80 76 84 78 79 81 88 91 90 123 155 164 159 163 164 148 155 171 122 57 86 87 80 73 73 70
78 86 82 82 75 79 77 68 69 69 67 63 54 41 62 88 89 97 94 96 93 90 78 69 60 47 35 170 161 172 164 171 142 154 172 166 107 104 95 90 83 82 76
77 68 67 70 56 68 61 72 79 77 79 77 70 66 70 71 95 101 95 92 88 89 93 77 41 26 33 168 178 186 182 176 173 145 166 150 135 108 94 87 91 90 85
Wind_Speed_850mb
29 36 32 32 32 38 34 30 31 32 34 35 38 34 34 31 36 43 48 52 43 47 56 59 57 53 49 52 53 46 41 39 37 34 34 32 31 33 34 37 41 46 48
35 46 31 40 41 48 45 41 43 38 42 47 33 28 43 52 48 48 52 55 56 56 57 60 61 58 53 56 57 51 46 44 41 39 37 34 36 35 38 39 44 49 47
50 45 52 44 39 52 53 49 45 48 48 56 56 50 50 47 46 44 53 56 61 65 59 65 68 66 61 59 64 58 51 48 45 43 40 37 38 37 39 42 47 50 44
51 58 46 42 43 47 49 48 46 47 44 45 47 56 61 63 67 59 57 52 71 64 76 73 73 74 69 65 69 62 56 51 49 45 42 41 39 39 41 45 50 51 35
47 57 54 45 37 44 38 41 43 42 47 45 44 47 50 54 57 67 72 65 59 66 79 86 88 81 81 75 75 66 60 54 50 44 45 42 40 39 42 47 51 46 35
52 59 62 57 46 41 43 37 39 41 40 40 45 46 53 57 60 65 65 70 84 81 71 81 93 98 95 88 78 65 57 53 50 47 56 42 38 39 43 49 49 39 36
62 65 61 55 54 49 45 33 31 32 41 39 41 52 55 63 72 71 70 71 71 77 95 82 95 114 100 81 64 50 56 56 50 57 48 45 36 36 45 48 42 34 34
62 71 61 54 51 57 20 29 34 20 24 28 39 46 52 61 68 57 50 58 58 55 69 80 91 52 73 63 50 56 66 54 63 62 56 40 32 38 43 43 41 43 36
47 73 64 62 35 21 20 14 17 22 28 29 34 44 45 43 64 69 69 69 63 61 64 65 85 75 82 60 57 62 61 69 76 74 41 28 32 37 40 39 37 32 37
40 45 48 53 48 35 13 36 41 42 44 40 45 45 51 56 54 62 68 73 67 58 55 63 73 74 82 62 62 61 60 77 62 37 20 24 32 34 36 36 30 35 33
29 28 32 36 38 60 34 42 52 45 48 45 47 52 58 63 60 57 63 66 59 62 56 55 51 77 83 90 54 56 83 63 39 20 18 23 30 33 34 34 31 31 29
30 12 23 15 5 9 27 42 46 50 41 47 54 56 59 55 60 59 57 60 56 51 41 35 35 27 68 54 46 69 56 33 18 20 15 24 30 28 28 26 27 29 36
36 34 28 38 39 20 23 40 39 40 44 47 53 63 59 58 56 53 44 42 43 37 31 31 46 38 25 54 48 53 38 29 18 13 19 24 24 19 16 21 27 34 34
32 34 32 23 7 35 36 37 37 44 45 48 54 55 56 56 48 50 54 49 43 36 31 25 20 25 23 14 26 27 25 20 6 12 20 18 13 15 17 24 32 34 32
38 31 24 12 21 23 31 31 36 40 45 45 44 46 48 49 46 49 49 35 42 42 43 39 38 46 43 52 46 34 18 6 3 6 8 8 15 20 23 27 28 27 28
39 40 31 26 24 22 22 22 27 32 35 38 37 38 38 39 36 41 40 38 36 47 44 47 53 51 49 45 46 39 24 12 4 9 8 12 16 20 23 21 26 22 24
42 43 37 31 29 27 28 26 26 26 27 28 28 27 28 29 29 29 30 33 32 31 55 39 44 39 40 41 39 29 24 21 16 7 5 10 16 23 26 26 24 19 23
46 39 37 26 23 25 27 20 19 23 19 22 22 24 23 18 15 18 20 24 30 33 38 45 39 43 43 36 28 29 29 26 15 12 3 6 17 25 29 26 21 18 23
44 43 33 28 24 24 23 23 24 23 24 22 19 20 19 15 12 6 7 14 18 29 31 41 48 44 41 40 36 34 29 27 22 19 6 8 17 27 32 28 21 17 19
38 35 27 22 23 24 26 26 22 24 24 21 17 14 10 7 11 8 4 5 8 18 32 45 49 45 40 42 37 38 33 28 32 20 11 10 20 27 30 20 18 17 20
30 17 15 15 18 21 23 20 21 23 19 15 14 11 12 12 15 18 23 27 27 27 38 46 47 42 39 37 30 31 36 34 32 19 12 2 15 25 15 8 9 20 18
11 13 17 21 23 25 19 18 19 17 16 15 17 18 20 19 18 21 25 24 27 29 29 31 29 37 35 31 21 27 47 50 38 22 7 5 11 12 8 13 23 24 21
15 17 21 24 34 37 33 29 32 38 41 36 20 16 19 25 34 39 37 20 23 9 10 30 30 28 26 31 33 41 45 30 24 23 8 6 10 10 19 22 26 28 24
20 21 25 26 28 35 35 37 29 29 29 26 25 27 26 29 33 32 35 36 37 36 28 22 20 16 10 11 22 29 23 25 23 16 9 13 11 19 26 25 28 26 24
39 37 31 33 37 32 24 28 27 30 29 36 32 27 19 17 25 31 33 37 39 37 28 25 24 17 4 14 13 17 26 24 26 21 17 14 19 30 30 26 28 27 23
37 34 32 31 31 35 28 24 32 34 33 39 37 41 46 25 29 31 28 27 23 24 16 18 20 24 15 11 21 18 28 22 16 17 21 21 30 27 23 26 27 28 23
Wind_Direction_850mb
259 252 246 230 242 256 259 271 277 280 278 288 277 280 278 281 277 282 280 279 290 263 259 254 254 258 256 244 238 242 247 246 246 250 259 267 276 284 294 302 310 314 314
253 234 262 245 244 247 251 261 262 260 270 270 282 281 276 278 275 273 271 267 273 276 268 258 253 254 253 241 238 240 244 244 244 249 257 266 273 283 293 302 308 312 311
257 244 264 247 261 251 248 252 265 263 275 268 264 263 259 264 270 275 274 268 266 266 267 256 254 253 252 244 239 239 240 241 243 247 256 265 272 282 291 300 306 308 305
253 240 238 259 267 250 252 252 256 265 276 285 279 268 263 265 273 269 271 269 264 265 264 262 255 250 250 245 239 236 236 238 242 245 256 265 270 279 291 300 307 308 304
249 245 252 255 247 257 254 248 252 262 278 288 293 294 292 287 283 275 274 273 270 267 261 265 258 249 245 239 235 234 235 237 241 246 255 262 270 281 292 299 307 306 297
260 255 253 261 254 254 259 263 267 274 273 282 289 295 295 291 291 289 283 278 269 266 271 263 261 248 240 231 231 232 237 240 241 241 250 257 273 283 294 301 302 300 292
263 265 262 257 252 246 255 264 280 274 276 292 298 294 295 295 296 293 292 294 284 276 271 268 269 244 230 229 221 236 246 242 244 249 251 256 272 285 291 297 303 300 295
264 258 258 245 240 248 268 273 278 283 287 295 298 304 308 307 304 309 298 296 303 299 281 269 269 222 224 225 236 226 236 229 228 239 240 248 273 283 292 298 303 300 294
283 256 242 236 248 222 260 265 261 260 265 276 291 302 303 295 305 304 302 300 293 299 301 302 264 261 246 228 224 221 229 215 222 233 226 252 269 281 294 303 303 301 293
278 247 229 239 250 251 254 285 276 273 281 295 296 293 292 291 293 301 305 303 298 300 303 293 285 276 223 220 216 220 223 205 204 212 231 259 274 291 300 298 297 293 306
318 287 267 273 281 278 271 264 269 283 281 291 291 294 293 295 294 290 297 304 301 300 310 299 283 238 221 205 209 228 213 204 210 203 237 271 287 299 302 299 301 306 302
12 327 321 274 302 259 242 255 260 285 278 284 290 287 287 291 294 296 293 296 297 299 311 275 255 225 185 187 211 203 206 202 201 217 266 285 295 297 293 295 306 303 304
20 18 346 285 229 270 289 281 276 278 281 292 294 286 286 284 282 284 293 298 294 285 278 249 256 252 191 180 182 201 203 212 237 314 311 299 290 290 287 297 307 306 307
356 8 32 32 181 213 226 257 269 276 284 282 279 282 284 284 286 284 282 281 280 276 261 243 211 176 180 234 252 211 193 232 268 324 306 312 301 290 298 305 307 310 308
348 346 345 301 281 257 245 258 270 280 284 285 287 290 288 283 287 297 293 273 274 255 250 229 216 227 258 257 228 213 211 236 121 317 305 327 321 316 313 305 306 313 318
332 331 341 336 314 307 299 296 290 292 293 296 300 300 301 297 303 296 293 291 275 256 245 239 226 224 216 209 220 223 223 147 175 126 53 13 355 337 332 329 326 328 329
304 325 329 333 330 330 329 327 321 321 313 315 318 316 307 304 301 305 299 290 274 259 242 227 230 213 206 204 199 193 157 139 139 117 44 19 348 346 340 337 337 341 343
331 326 329 338 346 351 342 343 346 332 355 2 356 351 346 326 321 318 289 268 259 255 242 226 204 194 193 186 176 151 142 140 144 184 21 313 333 341 343 343 350 353 350
329 330 332 342 360 8 5 20 19 25 24 16 11 8 1 351 341 314 290 269 251 245 225 208 181 174 161 153 151 149 146 134 176 198 248 290 319 346 354 353 358 0 359
340 339 341 357 20 25 25 31 24 25 25 18 23 26 28 43 57 49 102 139 174 188 177 165 150 149 150 152 156 159 161 164 184 183 187 279 346 351 345 2 6 19 13
338 357 26 44 52 49 40 32 30 31 33 43 49 58 70 95 95 108 105 113 118 131 141 141 145 152 165 163 172 171 166 167 170 163 192 121 334 328 351 19 38 28 58
38 68 73 66 57 53 42 36 39 54 66 67 75 81 91 104 102 104 110 127 131 136 141 141 146 138 126 117 144 172 165 153 128 166 141 352 342 334 51 53 47 60 62
70 66 62 65 78 71 64 76 82 78 71 64 76 101 108 84 74 69 72 124 131 142 147 128 118 113 125 121 122 155 158 163 160 165 236 125 37 55 75 66 68 68 58
67 68 80 92 73 69 71 65 59 55 54 58 58 69 105 89 72 80 76 84 78 79 81 88 91 90 123 155 164 159 163 164 148 155 171 122 57 86 87 80 73 73 70
78 86 82 82 75 79 77 68 69 69 67 63 54 41 62 88 89 97 94 96 93 90 78 69 60 47 35 170 161 172 164 171 142 154 172 166 107 104 95 90 83 82 76
77 68 67 70 56 68 61 72 79 77 79 77 70 66 70 71 95 101 95 92 88 89 93 77 41 26 33 168 178 186 182 176 173 145 166 150 135 108 94 87 91 90 85